Wind_Speed
18 17 16 16 16 15 14 14 14 15 16 16 18 19 19 18 18 17 15 14 13 12 11 9 8 7 7 6 6 5 4 3 2 1 1 2 3 3 4 4 4 4 4
17 17 16 15 15 13 12 12 12 12 14 16 17 18 19 18 17 16 15 15 14 13 11 10 8 7 7 7 7 6 5 4 3 2 2 2 2 3 3 4 4 4 4
17 17 15 14 14 12 10 10 11 11 13 16 16 16 18 17 16 15 14 14 14 13 12 10 9 8 8 8 7 6 5 4 4 3 2 2 1 2 2 3 3 4 4
17 16 14 13 12 11 10 9 9 10 12 15 16 16 16 16 15 15 14 14 14 13 12 11 10 9 8 8 8 7 6 5 5 4 3 2 1 0 1 1 2 3 4
16 15 14 13 12 12 10 8 9 9 11 14 16 16 16 16 16 15 14 14 14 13 12 11 11 10 9 8 8 7 7 6 6 5 4 3 3 2 2 2 3 3 4
15 15 14 13 12 12 11 8 8 9 11 13 15 17 17 17 16 14 14 14 14 13 13 13 12 11 10 9 9 9 8 8 7 6 6 5 5 5 5 4 5 5 5
15 14 13 13 12 11 10 8 7 8 9 12 15 16 17 16 16 15 14 14 14 14 14 14 13 12 11 10 10 10 10 10 9 9 8 8 8 8 8 8 8 8 7
14 13 13 12 11 10 8 6 5 5 7 10 13 15 15 16 16 16 15 15 15 15 15 14 14 14 13 12 12 12 12 12 12 11 11 11 11 11 11 11 11 11 11
14 13 13 11 10 9 7 6 4 5 6 8 11 14 15 15 15 16 16 15 16 16 16 15 15 14 14 13 14 14 14 14 14 14 14 14 13 14 14 14 14 15 15
14 13 12 11 10 8 7 5 3 4 5 7 10 13 14 15 15 15 16 15 15 16 15 15 15 15 14 15 15 16 16 16 16 16 16 16 16 17 17 18 18 18 18
15 14 12 11 10 8 7 6 4 5 6 7 9 10 12 14 14 15 15 15 15 16 16 16 16 15 15 15 15 16 17 17 18 18 18 19 19 20 20 20 21 21 22
15 14 13 12 10 8 7 6 6 5 6 7 9 10 12 12 14 14 15 15 15 16 16 16 16 15 15 15 16 17 18 18 19 19 20 20 21 22 23 23 24 25 25
16 14 14 13 11 9 8 7 7 7 7 7 8 8 9 11 13 15 16 16 15 15 16 16 16 17 18 18 18 19 19 20 21 21 22 23 23 24 25 26 26 27 27
17 16 14 13 11 10 9 9 8 9 8 8 8 9 10 12 13 14 16 16 16 16 17 17 17 18 19 20 20 20 21 22 23 24 24 25 25 26 28 28 29 30 30
19 18 16 14 13 11 10 10 10 10 10 10 11 10 11 11 12 13 14 15 16 17 17 18 19 20 21 21 22 22 22 23 24 25 26 27 27 29 30 31 32 32 33
20 20 18 17 15 13 12 11 11 10 10 11 11 12 12 12 13 13 14 15 16 17 18 19 21 22 22 22 23 23 24 24 25 26 27 28 29 30 31 33 33 34 34
22 21 20 18 16 15 15 13 12 12 12 12 11 12 13 13 14 14 15 16 17 18 19 20 21 21 22 23 24 24 25 26 27 28 29 30 31 32 33 34 35 36 37
24 22 22 20 18 17 17 15 14 13 13 13 13 13 13 13 15 16 16 17 18 19 20 20 20 21 23 23 24 25 26 27 29 30 31 32 33 34 35 36 37 37 38
26 25 23 22 21 19 18 17 16 16 15 14 15 15 16 16 16 17 17 18 19 19 20 21 22 23 24 25 26 28 29 30 31 32 33 34 35 36 37 38 39 40 41
27 26 25 24 23 22 21 20 18 18 17 17 17 17 18 18 18 18 18 19 19 20 21 22 24 26 26 27 28 30 31 32 33 35 36 37 38 39 40 41 42 43 44
27 26 26 25 24 24 24 22 20 19 19 19 19 19 19 18 19 20 20 21 21 22 24 24 25 27 29 30 31 32 33 34 35 36 37 39 40 41 43 44 45 46 46
28 27 27 26 26 25 25 24 23 22 22 21 22 22 21 21 23 24 24 24 25 26 27 27 28 29 30 31 33 35 36 37 37 38 40 41 43 44 45 46 47 48 49
28 28 28 28 28 27 26 26 25 25 24 24 24 24 24 25 25 26 27 27 28 28 29 30 31 31 32 34 35 36 37 38 39 40 42 43 44 46 47 48 49 50 51
28 29 28 28 28 28 28 27 27 26 26 26 26 26 26 26 27 28 28 29 30 31 32 33 34 34 35 36 37 38 39 41 42 43 44 45 46 47 49 50 51 52 53
28 28 29 29 29 28 27 27 26 26 26 26 26 26 27 27 28 28 29 31 32 33 34 35 36 37 37 38 40 41 42 43 44 45 47 48 49 50 51 52 53 54 54
28 28 29 29 28 27 26 26 26 26 26 26 26 26 27 28 29 30 31 32 33 34 35 35 36 38 39 40 41 43 44 45 47 48 49 50 51 52 53 54 55 55 55
Wind_Direction
318 320 315 310 305 296 289 282 268 248 240 230 224 222 220 219 220 223 225 227 227 229 227 233 237 232 226 220 215 209 203 196 188 169 126 100 88 80 68 56 43 40 40
318 321 319 314 310 301 289 281 268 251 237 224 219 218 218 217 219 222 224 223 225 225 225 231 231 227 221 218 216 206 204 201 192 179 154 121 96 84 70 59 47 42 39
319 322 319 314 313 310 298 285 266 251 234 220 213 215 217 217 218 220 221 223 222 222 224 228 228 225 220 217 214 206 205 205 201 188 172 142 126 102 71 59 47 40 35
320 324 323 318 317 316 304 291 271 245 231 216 211 212 216 215 216 216 214 219 219 220 224 227 226 222 218 214 211 209 210 209 210 210 212 214 215 202 26 28 24 23 18
320 325 324 321 319 318 307 286 265 248 228 212 211 211 210 212 216 217 216 220 219 221 223 223 220 219 216 211 210 213 215 216 220 225 237 248 256 273 288 306 322 333 342
318 321 322 322 319 321 318 295 264 246 230 218 212 208 208 214 216 217 219 220 218 220 221 218 217 219 218 218 219 222 223 225 229 234 241 253 264 272 283 293 302 308 313
313 319 321 325 323 320 323 316 266 242 224 216 211 208 207 210 213 214 215 217 217 219 221 220 221 222 223 225 226 229 231 234 238 242 248 256 265 271 278 284 290 295 301
310 315 318 323 327 325 325 321 289 249 221 212 209 208 211 215 215 215 216 216 219 220 222 224 226 227 228 232 233 235 238 242 246 249 252 258 266 271 276 281 286 289 291
307 312 315 319 323 322 322 318 305 245 229 216 211 209 213 215 216 216 215 217 220 222 224 227 229 229 232 238 240 242 246 250 252 253 256 260 264 269 273 278 282 286 288
303 307 313 317 317 316 311 308 296 247 228 223 214 211 212 213 214 215 217 216 218 222 226 229 230 231 237 243 244 247 251 255 258 260 261 263 266 269 273 277 280 283 286
300 302 306 312 311 311 304 295 286 263 243 228 221 218 215 213 215 217 217 219 222 225 229 232 234 237 243 246 248 252 257 259 261 263 264 265 267 270 272 275 278 280 283
295 297 299 302 299 297 296 286 277 262 241 233 228 228 224 223 222 222 221 223 226 227 230 235 237 239 245 249 253 255 260 262 264 266 267 269 270 272 273 275 277 280 282
287 290 293 293 288 285 283 278 270 255 243 238 238 240 233 227 225 224 224 226 229 231 234 237 238 242 247 252 256 258 262 265 267 268 269 270 270 272 274 275 277 279 281
280 283 285 288 289 283 278 275 269 259 248 242 242 246 237 233 232 230 230 232 233 235 238 241 245 248 252 256 259 261 263 266 269 270 271 272 272 273 274 275 277 278 281
275 276 280 281 280 280 276 274 272 267 255 250 251 252 246 243 241 237 233 235 239 243 248 251 253 255 258 260 262 264 266 268 271 272 272 274 274 275 276 277 279 280 281
271 272 274 276 274 271 275 274 272 265 257 253 253 253 248 246 244 242 240 241 245 250 255 258 259 260 261 263 265 269 271 272 273 274 275 275 275 275 277 279 280 281 281
266 266 268 270 270 267 269 269 268 265 261 258 254 252 250 247 246 248 249 250 253 256 257 258 260 263 264 266 269 273 274 275 275 276 277 277 277 277 279 281 281 281 281
261 261 261 264 265 266 265 264 264 263 261 259 258 256 255 253 250 251 253 258 261 261 261 263 266 269 270 270 271 274 277 277 278 279 280 280 280 280 280 281 283 283 283
259 259 257 259 261 263 263 261 263 262 262 261 258 255 256 257 258 257 259 261 264 267 268 269 270 273 275 276 276 278 279 280 281 281 281 281 281 282 282 282 283 284 284
257 258 257 256 257 257 259 259 262 262 260 259 259 259 261 262 260 261 264 266 267 270 273 273 274 275 277 279 281 281 283 283 284 283 282 282 282 283 284 285 285 284 284
254 255 254 254 255 254 256 256 259 262 262 260 262 264 266 267 266 268 270 270 272 274 275 277 278 278 279 281 283 284 284 285 285 285 285 284 283 283 284 285 285 285 285
251 251 252 252 254 254 256 258 262 264 264 264 264 265 267 270 270 270 272 273 275 276 277 278 279 280 281 282 284 285 285 286 286 286 286 286 286 285 285 285 286 286 286
250 249 249 251 252 254 256 258 262 264 266 266 267 268 270 274 275 275 274 275 276 277 279 281 282 283 284 284 285 286 287 288 289 289 289 289 288 287 287 288 287 287 286
247 248 248 250 252 254 256 258 262 264 268 268 268 271 273 275 277 276 275 275 277 281 282 284 285 285 286 287 287 288 288 289 290 290 290 290 290 289 289 289 288 288 287
247 248 251 253 255 255 254 257 261 264 266 268 269 272 273 275 276 276 278 280 282 284 286 285 286 287 288 289 289 289 289 290 290 290 290 290 290 289 289 289 289 289 288
245 248 250 252 254 255 256 258 261 264 265 267 271 274 276 278 279 279 281 282 283 285 286 287 288 289 290 290 291 291 291 291 291 291 291 291 291 291 291 291 290 289 289
Height
5850 5847 5845 5843 5840 5838 5837 5836 5835 5836 5838 5841 5845 5849 5853 5856 5860 5864 5867 5869 5872 5874 5875 5877 5878 5879 5879 5880 5881 5882 5883 5884 5884 5885 5885 5885 5885 5885 5885 5886 5886 5886 5886
5847 5845 5842 5840 5837 5835 5834 5833 5834 5833 5834 5838 5842 5846 5850 5854 5858 5861 5864 5867 5869 5871 5874 5875 5876 5878 5878 5879 5881 5882 5882 5883 5884 5884 5885 5885 5886 5885 5885 5886 5886 5886 5887
5845 5843 5840 5838 5836 5833 5832 5831 5831 5831 5832 5836 5839 5843 5848 5852 5856 5859 5862 5865 5867 5870 5872 5874 5875 5876 5877 5878 5880 5881 5882 5883 5883 5884 5885 5885 5885 5886 5886 5886 5886 5886 5887
5844 5841 5838 5836 5834 5832 5831 5829 5829 5829 5831 5834 5837 5841 5845 5850 5854 5857 5860 5863 5865 5868 5870 5872 5873 5875 5876 5877 5878 5880 5881 5882 5883 5884 5884 5885 5885 5885 5886 5886 5886 5886 5886
5842 5840 5837 5835 5833 5831 5829 5828 5828 5828 5829 5832 5836 5839 5843 5848 5851 5855 5857 5860 5863 5865 5868 5870 5872 5873 5875 5876 5877 5879 5880 5881 5882 5883 5883 5884 5884 5884 5885 5885 5885 5885 5885
5841 5839 5836 5834 5832 5830 5828 5827 5826 5827 5828 5831 5834 5837 5842 5846 5849 5852 5855 5858 5861 5863 5865 5868 5870 5872 5873 5875 5876 5878 5879 5880 5881 5881 5882 5883 5883 5883 5884 5884 5884 5884 5884
5840 5838 5836 5833 5831 5829 5827 5826 5825 5826 5827 5829 5832 5836 5840 5843 5846 5849 5853 5856 5858 5861 5863 5865 5867 5869 5871 5873 5874 5876 5877 5878 5879 5880 5880 5881 5882 5882 5882 5883 5883 5883 5883
5839 5837 5835 5833 5830 5828 5827 5826 5825 5824 5826 5828 5830 5834 5837 5841 5844 5847 5850 5853 5856 5858 5861 5863 5865 5867 5869 5871 5872 5874 5875 5876 5877 5877 5878 5879 5879 5880 5880 5881 5881 5881 5881
5837 5835 5833 5832 5830 5828 5827 5826 5824 5824 5825 5827 5829 5832 5835 5838 5841 5844 5847 5850 5853 5856 5858 5860 5862 5864 5866 5868 5870 5871 5872 5873 5874 5875 5875 5876 5876 5877 5877 5877 5878 5878 5878
5835 5834 5832 5830 5829 5828 5827 5825 5824 5824 5825 5826 5828 5831 5833 5836 5839 5842 5845 5848 5850 5853 5855 5857 5859 5861 5863 5865 5867 5868 5869 5870 5871 5871 5872 5873 5873 5873 5874 5874 5874 5874 5874
5833 5832 5830 5829 5827 5826 5825 5825 5824 5824 5825 5826 5828 5829 5831 5834 5837 5840 5842 5845 5847 5850 5852 5854 5856 5858 5860 5862 5863 5864 5865 5866 5867 5867 5868 5869 5869 5869 5869 5869 5869 5869 5869
5831 5830 5829 5827 5826 5825 5825 5825 5824 5825 5825 5826 5827 5828 5830 5832 5835 5837 5840 5842 5845 5847 5849 5851 5853 5855 5856 5858 5859 5860 5861 5862 5862 5863 5863 5864 5864 5864 5864 5864 5864 5864 5863
5828 5828 5827 5825 5824 5824 5824 5824 5824 5824 5824 5825 5826 5827 5828 5830 5832 5835 5837 5839 5841 5844 5846 5847 5849 5851 5852 5854 5855 5856 5857 5857 5857 5858 5858 5858 5859 5859 5858 5858 5858 5858 5857
5825 5825 5825 5824 5823 5823 5823 5823 5823 5823 5823 5824 5824 5826 5827 5828 5830 5832 5834 5836 5838 5840 5842 5844 5845 5846 5848 5849 5850 5850 5851 5851 5852 5852 5852 5852 5852 5852 5852 5851 5851 5851 5850
5822 5822 5822 5822 5821 5821 5821 5821 5821 5821 5822 5822 5823 5824 5825 5826 5827 5829 5830 5833 5835 5836 5838 5839 5841 5842 5843 5843 5844 5845 5845 5845 5846 5846 5845 5845 5845 5845 5844 5844 5843 5842 5842
5818 5818 5818 5819 5818 5817 5818 5819 5819 5819 5819 5820 5821 5821 5822 5823 5825 5826 5827 5829 5831 5832 5834 5835 5836 5836 5837 5838 5838 5839 5839 5839 5839 5839 5838 5838 5838 5837 5837 5836 5835 5834 5833
5813 5814 5815 5815 5815 5815 5815 5816 5816 5816 5817 5817 5818 5818 5819 5820 5822 5823 5824 5825 5826 5828 5829 5829 5830 5831 5831 5832 5832 5832 5832 5832 5832 5831 5831 5830 5830 5829 5828 5827 5826 5825 5823
5808 5809 5810 5811 5811 5812 5812 5812 5813 5813 5813 5814 5815 5816 5816 5817 5818 5819 5820 5821 5822 5822 5823 5824 5824 5824 5825 5825 5825 5825 5825 5825 5824 5823 5822 5821 5821 5820 5819 5817 5816 5815 5813
5802 5804 5805 5806 5807 5808 5808 5808 5809 5809 5810 5810 5811 5812 5813 5813 5814 5815 5816 5816 5817 5817 5817 5818 5818 5818 5818 5818 5818 5818 5817 5816 5815 5814 5813 5812 5811 5810 5808 5807 5806 5804 5802
5796 5798 5799 5801 5802 5803 5803 5804 5804 5805 5805 5806 5807 5808 5809 5809 5809 5810 5811 5811 5811 5812 5812 5811 5812 5811 5811 5811 5811 5810 5809 5808 5807 5805 5804 5802 5801 5799 5797 5796 5794 5793 5791
5790 5792 5793 5795 5796 5797 5798 5799 5800 5801 5801 5802 5803 5804 5804 5804 5804 5805 5806 5805 5806 5806 5805 5805 5805 5804 5804 5803 5802 5801 5799 5798 5797 5795 5793 5791 5790 5788 5786 5784 5781 5779 5777
5783 5785 5787 5789 5790 5792 5793 5794 5795 5796 5797 5797 5798 5799 5799 5800 5800 5800 5800 5800 5799 5799 5799 5798 5797 5797 5796 5795 5793 5791 5790 5788 5786 5784 5781 5779 5777 5775 5773 5771 5768 5766 5763
5777 5779 5781 5783 5784 5785 5787 5788 5789 5790 5791 5791 5792 5792 5793 5793 5793 5793 5792 5792 5792 5791 5791 5790 5789 5788 5787 5785 5783 5781 5779 5777 5775 5772 5770 5767 5765 5762 5759 5756 5753 5751 5748
5770 5772 5774 5776 5777 5779 5780 5782 5783 5783 5784 5784 5785 5786 5786 5786 5786 5785 5785 5784 5783 5783 5782 5781 5780 5778 5777 5775 5773 5771 5768 5766 5763 5760 5757 5754 5751 5748 5745 5742 5738 5735 5732
5763 5766 5768 5769 5771 5772 5773 5775 5776 5777 5777 5778 5778 5779 5779 5778 5778 5777 5777 5776 5775 5774 5772 5771 5769 5767 5766 5763 5761 5759 5756 5753 5751 5747 5744 5740 5737 5734 5730 5727 5723 5719 5716
5756 5759 5761 5763 5764 5766 5767 5768 5770 5771 5771 5771 5771 5771 5771 5771 5771 5770 5768 5767 5766 5764 5763 5761 5759 5757 5754 5752 5749 5746 5743 5740 5737 5733 5730 5726 5722 5718 5714 5710 5706 5702 5698